This is the latest recevied weather packets stored in our database for station/object W0VI. If no packets are shown the sender has not sent any weather packets the latest 10 day(s).
| Time | Temp. | Humidity | Pressure | Rain* | Wind** | Luminosity | Snow |
|---|---|---|---|---|---|---|---|
| 1778114911 | 6.67° C | 49% | 1015.2 hPa | 0 mm | - | 24 W/m² | - |
| 1778114608 | 6.67° C | 49% | 1015.2 hPa | 0 mm | - | 33 W/m² | - |
| 1778114305 | 6.67° C | 49% | 1015.3 hPa | 0 mm | - | 32 W/m² | - |
| 1778114000 | 6.67° C | 49% | 1015.1 hPa | 0 mm | - | 28 W/m² | - |
| 1778113695 | 6.67° C | 49% | 1015.4 hPa | 0 mm | - | 26 W/m² | - |
| 1778113391 | 6.67° C | 49% | 1015.3 hPa | 0 mm | - | 29 W/m² | - |
| 1778113084 | 6.67° C | 49% | 1015.3 hPa | 0 mm | - | 35 W/m² | - |
| 1778112780 | 6.67° C | 49% | 1015.3 hPa | 0 mm | - | 39 W/m² | - |
| 1778112471 | 6.67° C | 49% | 1015.1 hPa | 0 mm | - | 40 W/m² | - |
| 1778112167 | 6.67° C | 49% | 1015.3 hPa | 0 mm | - | 42 W/m² | - |
| 1778111863 | 6.67° C | 49% | 1015.2 hPa | 0 mm | - | 39 W/m² | - |
| 1778111559 | 6.67° C | 48% | 1015.1 hPa | 0 mm | - | 41 W/m² | - |
| 1778111257 | 6.67° C | 48% | 1015.3 hPa | 0 mm | - | 43 W/m² | - |
| 1778110953 | 6.67° C | 48% | 1015.5 hPa | 0 mm | - | 47 W/m² | - |
| 1778110651 | 6.67° C | 49% | 1015.4 hPa | 0 mm | - | 58 W/m² | - |
| 1778110347 | 6.67° C | 48% | 1015.3 hPa | 0 mm | - | 60 W/m² | - |
| 1778110044 | 6.67° C | 48% | 1015.4 hPa | 0 mm | - | 68 W/m² | - |
| 1778109739 | 7.22° C | 48% | 1015.4 hPa | 0 mm | - | 75 W/m² | - |
| 1778109436 | 6.67° C | 48% | 1015.6 hPa | 0 mm | - | 83 W/m² | - |
| 1778109135 | 6.67° C | 48% | 1015.5 hPa | 0 mm | - | 90 W/m² | - |
| 1778108831 | 7.22° C | 48% | 1015.3 hPa | 0 mm | - | 99 W/m² | - |
| 1778108528 | 6.67° C | 48% | 1015.4 hPa | 0 mm | - | 106 W/m² | - |
| 1778108224 | 7.22° C | 49% | 1015.4 hPa | 0 mm | - | 107 W/m² | - |
| 1778107921 | 7.22° C | 49% | 1015.3 hPa | 0 mm | - | 99 W/m² | - |
| 1778107618 | 7.22° C | 49% | 1015.4 hPa | 0 mm | - | 108 W/m² | - |
* Rain latest hour (hover to see other rain measurements)
** Current wind speed in m/s (hover to see current wind gust speed)